sat.trackr.live / text

‹ back to catalog

INMARSAT 6-F1

NORAD 50319 · 2021-128A

PAYLOAD ACTIVE UNKNOWN

§ Identity

Operator
Country
IM
Launch date
2021-12-22
Launch site
TANSC
Launch vehicle
Mass (kg)
RCS (m²)

Purposes: comms

External: N2YO · Heavens-Above · Gunter

§ Orbital elements

Epoch: 2026-09-19T14:32:18.991104Z

Period
1,436.07 min
Inclination
0.0181°
Eccentricity
0.0000299
Mean motion
1.00273650 rev/d
Perigee alt
35,784.8 km
Apogee alt
35,787.3 km
Semi-major
42,164.2 km
B*
0.0000e+0
RAAN
146.9419°
Arg perigee
322.4700°
Mean anomaly
190.9681°
Rev number
1,720

§ Raw data

INMARSAT 6-F11 50319U 21128A   26262.60577536 -.00000177  00000+0  00000+0 0  99932 50319   0.0181 146.9419 0000299 322.4700 190.9681  1.00273650 17200

JSON: /api/v1/satellites/50319 · /tle

For live sub-satellite position, see the globe view (requires WebGL).

§ Visibility from observer

Set your observer location to see the next 7 days of passes ≥ 10°. The values pass through the URL so the page stays shareable.

No JS? Fill the form by hand. The geolocation button needs JavaScript.